�������l�o���
Date,Time,MP-1(��Sv/h),MP-2(��Sv/h),MP-3(��Sv/h),MP-4(��Sv/h),MP-5(��Sv/h),MP-6(��Sv/h),MP-7(��Sv/h),MP-8(��Sv/h),����,����(m/s),���J
2021/03/13,00:00,0.653,0.961,0.605,1.204,0.855,0.378,0.669,0.624,�k�k��,6.5,��
2021/03/13,00:10,0.653,0.963,0.605,1.202,0.856,0.378,0.667,0.625,�k�k��,5.9,��
2021/03/13,00:20,0.653,0.961,0.605,1.201,0.856,0.377,0.668,0.623,�k�k��,6.8,��
2021/03/13,00:30,0.654,0.962,0.603,1.201,0.856,0.379,0.669,0.625,�k�k��,6.7,��
2021/03/13,00:40,0.651,0.961,0.606,1.200,0.858,0.377,0.667,0.625,�k�k��,7.3,��
2021/03/13,00:50,0.654,0.963,0.605,1.203,0.855,0.378,0.667,0.625,�k�k��,7.5,��
2021/03/13,01:00,0.654,0.961,0.605,1.201,0.856,0.378,0.669,0.624,�k�k��,8.1,��
2021/03/13,01:10,0.655,0.962,0.603,1.204,0.856,0.377,0.669,0.625,�k�k��,8.4,��
2021/03/13,01:20,0.654,0.962,0.604,1.203,0.854,0.377,0.667,0.625,�k�k��,8.2,��
2021/03/13,01:30,0.655,0.963,0.605,1.201,0.857,0.379,0.666,0.626,�k�k��,7.4,�L
2021/03/13,01:40,0.653,0.960,0.606,1.201,0.857,0.377,0.667,0.625,�k�k��,8.3,��
2021/03/13,01:50,0.652,0.961,0.605,1.201,0.857,0.377,0.664,0.624,�k�k��,8.6,�L
2021/03/13,02:00,0.654,0.961,0.603,1.201,0.856,0.377,0.667,0.625,�k�k��,8.7,��
2021/03/13,02:10,0.652,0.962,0.603,1.200,0.855,0.378,0.667,0.623,�k�k��,8.1,��
2021/03/13,02:20,0.654,0.961,0.604,1.201,0.856,0.377,0.665,0.625,�k�k��,7.7,��
2021/03/13,02:30,0.653,0.961,0.604,1.201,0.857,0.378,0.666,0.626,�k�k��,6.9,��
2021/03/13,02:40,0.654,0.961,0.603,1.203,0.856,0.378,0.669,0.626,�k�k��,7.3,��
2021/03/13,02:50,0.652,0.959,0.606,1.202,0.858,0.379,0.667,0.624,�k�k��,7.4,��
2021/03/13,03:00,0.653,0.961,0.604,1.203,0.857,0.376,0.667,0.624,�k�k��,8.7,�L
2021/03/13,03:10,0.654,0.961,0.605,1.201,0.855,0.379,0.667,0.625,�k�k��,7.6,��
2021/03/13,03:20,0.652,0.962,0.604,1.200,0.856,0.378,0.667,0.626,�k�k��,6.4,�L
2021/03/13,03:30,0.652,0.962,0.605,1.202,0.856,0.376,0.667,0.625,�k�k��,7.9,�L
2021/03/13,03:40,0.653,0.962,0.604,1.202,0.855,0.379,0.666,0.626,�k�k��,8.5,��
2021/03/13,03:50,0.655,0.962,0.604,1.202,0.855,0.377,0.665,0.624,�k�k��,7.0,�L
2021/03/13,04:00,0.653,0.957,0.604,1.201,0.855,0.379,0.666,0.625,�k�k��,6.1,�L
2021/03/13,04:10,0.650,0.957,0.604,1.201,0.854,0.377,0.667,0.626,�k�k��,6.0,�L
2021/03/13,04:20,0.651,0.956,0.602,1.201,0.853,0.378,0.667,0.626,�k�k��,6.2,��
2021/03/13,04:30,0.651,0.956,0.603,1.200,0.853,0.377,0.667,0.624,�k�k��,6.6,��
2021/03/13,04:40,0.653,0.957,0.603,1.201,0.854,0.378,0.668,0.626,�k�k��,8.1,��
2021/03/13,04:50,0.650,0.957,0.604,1.202,0.853,0.376,0.666,0.624,�k�k��,8.5,�L
2021/03/13,05:00,0.650,0.955,0.602,1.200,0.855,0.378,0.667,0.627,�k�k��,8.1,�L
2021/03/13,05:10,0.648,0.956,0.604,1.200,0.853,0.377,0.668,0.626,�k�k��,7.3,�L
2021/03/13,05:20,0.650,0.955,0.603,1.201,0.852,0.378,0.667,0.625,�k�k��,7.5,�L
2021/03/13,05:30,0.649,0.955,0.604,1.199,0.852,0.379,0.668,0.625,�k�k��,8.1,�L
2021/03/13,05:40,0.648,0.952,0.602,1.197,0.850,0.377,0.668,0.623,�k�k��,7.4,�L
2021/03/13,05:50,0.648,0.950,0.603,1.199,0.848,0.377,0.665,0.625,�k�k��,8.2,�L
2021/03/13,06:00,0.645,0.948,0.600,1.195,0.845,0.378,0.666,0.624,�k�k��,8.2,�L
2021/03/13,06:10,0.642,0.945,0.600,1.194,0.846,0.377,0.665,0.623,�k�k��,8.3,�L
2021/03/13,06:20,0.643,0.943,0.599,1.191,0.840,0.376,0.664,0.622,�k�k��,8.1,�L
2021/03/13,06:30,0.642,0.939,0.596,1.188,0.838,0.376,0.665,0.622,�k�k��,7.8,�L
2021/03/13,06:40,0.640,0.936,0.596,1.183,0.834,0.376,0.663,0.620,�k�k��,8.3,�L
2021/03/13,06:50,0.640,0.934,0.594,1.181,0.833,0.375,0.664,0.621,�k�k��,9.7,�L
2021/03/13,07:00,0.638,0.929,0.592,1.179,0.832,0.375,0.662,0.619,�k�k��,7.9,�L
2021/03/13,07:10,0.637,0.930,0.593,1.181,0.830,0.373,0.660,0.617,�k�k��,9.6,�L
2021/03/13,07:20,0.637,0.930,0.592,1.177,0.828,0.374,0.659,0.620,�k�k��,9.3,�L
2021/03/13,07:30,0.636,0.929,0.591,1.175,0.829,0.373,0.661,0.619,�k�k��,10.0,�L
2021/03/13,07:40,0.636,0.929,0.591,1.170,0.824,0.373,0.660,0.619,�k�k��,10.0,�L
2021/03/13,07:50,0.635,0.927,0.590,1.173,0.826,0.373,0.661,0.620,�k�k��,10.2,�L
2021/03/13,08:00,0.634,0.926,0.590,1.173,0.825,0.372,0.660,0.619,�k�k��,10.0,�L
2021/03/13,08:10,0.634,0.925,0.589,1.170,0.824,0.373,0.659,0.619,�k�k��,10.0,�L
2021/03/13,08:20,0.633,0.922,0.591,1.167,0.820,0.374,0.659,0.618,�k�k��,10.2,�L
2021/03/13,08:30,0.633,0.921,0.590,1.162,0.819,0.373,0.657,0.618,�k�k��,10.7,�L
2021/03/13,08:40,0.632,0.918,0.589,1.158,0.818,0.373,0.657,0.615,�k�k��,9.5,�L
2021/03/13,08:50,0.632,0.917,0.589,1.157,0.815,0.371,0.656,0.616,�k�k��,9.9,�L
2021/03/13,09:00,0.630,0.917,0.590,1.153,0.816,0.374,0.655,0.616,�k�k��,9.3,�L
2021/03/13,09:10,0.629,0.913,0.586,1.147,0.812,0.372,0.654,0.614,�k�k��,8.8,�L
2021/03/13,09:20,0.629,0.913,0.589,1.144,0.814,0.373,0.653,0.616,�k,9.1,�L
2021/03/13,09:30,0.627,0.914,0.589,1.143,0.809,0.375,0.656,0.616,�k,8.4,�L
2021/03/13,09:40,0.627,0.910,0.587,1.140,0.810,0.372,0.655,0.615,�k�k��,8.7,�L
2021/03/13,09:50,0.629,0.910,0.589,1.141,0.811,0.374,0.654,0.614,�k�k��,9.4,�L
2021/03/13,10:00,0.627,0.911,0.588,1.141,0.811,0.372,0.653,0.615,�k�k��,9.7,�L
2021/03/13,10:10,0.627,0.909,0.588,1.138,0.809,0.373,0.653,0.616,�k�k��,9.7,�L
2021/03/13,10:20,0.627,0.907,0.586,1.137,0.810,0.372,0.653,0.614,�k�k��,9.4,�L
2021/03/13,10:30,0.623,0.904,0.586,1.134,0.805,0.371,0.652,0.612,�k�k��,9.6,�L
2021/03/13,10:40,0.621,0.899,0.582,1.126,0.800,0.370,0.649,0.612,�k�k��,8.0,�L
2021/03/13,10:50,0.620,0.896,0.583,1.124,0.799,0.369,0.649,0.611,�k�k��,8.6,�L
2021/03/13,11:00,0.616,0.893,0.581,1.118,0.794,0.370,0.647,0.609,�k�k��,9.2,�L
2021/03/13,11:10,0.618,0.896,0.584,1.122,0.795,0.369,0.647,0.609,�k�k��,7.1,�L
2021/03/13,11:20,0.621,0.895,0.582,1.125,0.798,0.370,0.649,0.613,�k�k��,10.2,�L
2021/03/13,11:30,0.621,0.899,0.585,1.124,0.797,0.370,0.650,0.610,�k�k��,9.1,�L
2021/03/13,11:40,0.622,0.898,0.582,1.126,0.796,0.369,0.647,0.611,�k�k��,6.2,�L
2021/03/13,11:50,0.620,0.897,0.582,1.122,0.794,0.369,0.646,0.611,�k�k��,6.6,�L
2021/03/13,12:00,0.620,0.895,0.580,1.118,0.788,0.368,0.647,0.607,�k��,6.1,�L
2021/03/13,12:10,0.616,0.895,0.580,1.113,0.788,0.369,0.645,0.610,�k�k��,5.3,�L
2021/03/13,12:20,0.617,0.890,0.581,1.114,0.787,0.369,0.645,0.610,�k�k��,4.6,�L
2021/03/13,12:30,0.616,0.890,0.581,1.112,0.786,0.368,0.644,0.608,�k�k��,4.4,�L
2021/03/13,12:40,0.614,0.889,0.580,1.109,0.784,0.366,0.645,0.606,�k��,5.9,�L
2021/03/13,12:50,0.613,0.885,0.578,1.108,0.782,0.368,0.645,0.607,�k�k��,5.7,�L
2021/03/13,13:00,0.613,0.885,0.578,1.109,0.782,0.366,0.643,0.607,�k�k��,5.9,�L
2021/03/13,13:10,0.611,0.881,0.578,1.105,0.775,0.366,0.642,0.604,�k�k��,6.0,�L
2021/03/13,13:20,0.612,0.881,0.576,1.099,0.772,0.365,0.641,0.606,�k,5.0,�L
2021/03/13,13:30,0.613,0.883,0.577,1.102,0.773,0.369,0.641,0.606,�k�k��,5.7,�L
2021/03/13,13:40,0.617,0.881,0.577,1.100,0.768,0.366,0.641,0.604,�k,4.9,�L
2021/03/13,13:50,0.614,0.883,0.577,1.102,0.772,0.368,0.641,0.605,�k,4.7,�L
2021/03/13,14:00,0.614,0.884,0.577,1.101,0.772,0.367,0.642,0.606,�k�k��,5.3,�L
2021/03/13,14:10,0.613,0.881,0.576,1.103,0.770,0.369,0.641,0.605,�k��,3.7,�L
2021/03/13,14:20,0.613,0.882,0.578,1.100,0.770,0.367,0.641,0.604,�k�k��,5.0,�L
2021/03/13,14:30,0.612,0.881,0.576,1.103,0.770,0.368,0.641,0.603,�k�k��,3.4,�L
2021/03/13,14:40,0.613,0.881,0.578,1.101,0.768,0.366,0.640,0.604,�k�k��,3.3,�L
2021/03/13,14:50,0.612,0.880,0.575,1.092,0.762,0.365,0.637,0.603,�k�k��,2.3,�L
2021/03/13,15:00,0.614,0.880,0.576,1.094,0.762,0.365,0.639,0.603,�k��,2.9,�L
2021/03/13,15:10,0.612,0.880,0.574,1.094,0.764,0.365,0.640,0.604,�k�k��,2.2,�L
2021/03/13,15:20,0.611,0.879,0.574,1.095,0.758,0.365,0.639,0.604,�k�k��,3.4,�L
2021/03/13,15:30,0.612,0.880,0.576,1.093,0.759,0.365,0.638,0.605,�k�k��,4.0,�L
2021/03/13,15:40,0.613,0.880,0.575,1.095,0.760,0.367,0.638,0.601,�k,4.6,�L
2021/03/13,15:50,0.613,0.878,0.575,1.097,0.763,0.366,0.639,0.602,�k,5.0,�L
2021/03/13,16:00,0.611,0.877,0.576,1.093,0.762,0.366,0.638,0.601,�k,6.0,�L
2021/03/13,16:10,0.613,0.879,0.574,1.093,0.760,0.365,0.639,0.601,�k,6.9,�L
2021/03/13,16:20,0.614,0.881,0.576,1.095,0.763,0.369,0.639,0.604,�k,6.9,�L
2021/03/13,16:30,0.617,0.880,0.576,1.095,0.764,0.368,0.640,0.604,�k,7.4,�L
2021/03/13,16:40,0.616,0.882,0.577,1.101,0.764,0.368,0.639,0.604,�k�k��,9.0,�L
2021/03/13,16:50,0.612,0.876,0.575,1.094,0.760,0.367,0.639,0.604,�k,3.5,�L
2021/03/13,17:00,0.610,0.873,0.574,1.093,0.757,0.366,0.639,0.602,�k,3.2,�L
2021/03/13,17:10,0.612,0.874,0.575,1.093,0.756,0.367,0.638,0.603,�k�k��,6.9,�L
2021/03/13,17:20,0.611,0.874,0.576,1.093,0.756,0.368,0.637,0.602,�k�k��,6.4,�L
2021/03/13,17:30,0.614,0.877,0.576,1.094,0.757,0.366,0.638,0.601,�k,5.2,�L
2021/03/13,17:40,0.616,0.880,0.576,1.095,0.757,0.366,0.638,0.602,�k�k��,2.9,�L
2021/03/13,17:50,0.612,0.876,0.575,1.091,0.751,0.366,0.637,0.603,��,3.4,�L
2021/03/13,18:00,0.610,0.873,0.574,1.090,0.748,0.366,0.635,0.602,�k�k��,7.9,�L
2021/03/13,18:10,0.612,0.869,0.574,1.089,0.749,0.366,0.635,0.601,�k,8.0,�L
2021/03/13,18:20,0.610,0.873,0.574,1.089,0.744,0.366,0.634,0.601,�k�k��,5.1,�L
2021/03/13,18:30,0.609,0.872,0.573,1.089,0.747,0.367,0.636,0.602,�k�k��,7.2,�L
2021/03/13,18:40,0.607,0.868,0.571,1.085,0.742,0.365,0.634,0.601,�k�k��,9.3,�L
2021/03/13,18:50,0.605,0.868,0.571,1.080,0.740,0.363,0.634,0.599,�k�k��,7.7,�L
2021/03/13,19:00,0.601,0.864,0.571,1.082,0.737,0.362,0.635,0.598,�k�k��,10.6,�L
2021/03/13,19:10,0.605,0.867,0.570,1.081,0.733,0.364,0.634,0.598,�k�k��,10.3,�L
2021/03/13,19:20,0.607,0.868,0.570,1.079,0.735,0.364,0.634,0.598,�k�k��,11.3,�L
2021/03/13,19:30,0.608,0.867,0.571,1.081,0.734,0.364,0.634,0.597,�k�k��,11.6,�L
2021/03/13,19:40,0.609,0.872,0.572,1.086,0.737,0.365,0.637,0.600,�k,12.7,�L
2021/03/13,19:50,0.612,0.874,0.576,1.088,0.740,0.368,0.638,0.601,�k,12.4,�L
2021/03/13,20:00,0.611,0.872,0.573,1.085,0.735,0.367,0.636,0.599,�k,12.4,�L
2021/03/13,20:10,0.607,0.867,0.572,1.080,0.731,0.365,0.636,0.600,�k�k��,13.1,�L
2021/03/13,20:20,0.602,0.864,0.571,1.076,0.726,0.365,0.634,0.599,�k�k��,14.6,�L
2021/03/13,20:30,0.600,0.857,0.566,1.069,0.718,0.363,0.633,0.595,-,CALM,�L
2021/03/13,20:40,0.599,0.857,0.566,1.068,0.715,0.362,0.631,0.593,�k�k��,10.5,�L
2021/03/13,20:50,0.597,0.856,0.565,1.072,0.713,0.363,0.634,0.596,�k�k��,13.3,�L
2021/03/13,21:00,0.598,0.857,0.563,1.068,0.711,0.361,0.633,0.595,�k�k��,15.5,�L
2021/03/13,21:10,0.600,0.859,0.564,1.070,0.707,0.362,0.632,0.595,�k�k��,14.9,�L
2021/03/13,21:20,0.599,0.859,0.564,1.066,0.705,0.363,0.632,0.596,�k�k��,12.2,�L
2021/03/13,21:30,0.603,0.863,0.565,1.075,0.708,0.365,0.632,0.598,�k�k��,12.5,�L
2021/03/13,21:40,0.606,0.867,0.566,1.080,0.710,0.367,0.635,0.599,�k��,11.9,�L
2021/03/13,21:50,0.612,0.872,0.567,1.084,0.713,0.368,0.634,0.601,�k��,12.5,�L
2021/03/13,22:00,0.611,0.874,0.569,1.087,0.716,0.368,0.636,0.602,�k��,8.7,�L
2021/03/13,22:10,0.608,0.872,0.566,1.083,0.718,0.367,0.637,0.603,�k��,10.7,�L
2021/03/13,22:20,0.605,0.865,0.567,1.079,0.714,0.369,0.636,0.599,�k��,10.0,�L
2021/03/13,22:30,0.607,0.869,0.569,1.080,0.718,0.368,0.634,0.600,�k��,13.5,�L
2021/03/13,22:40,0.610,0.871,0.569,1.085,0.719,0.368,0.637,0.602,�k��,14.1,�L
2021/03/13,22:50,0.611,0.875,0.572,1.090,0.721,0.369,0.638,0.600,�k��,14.4,�L
2021/03/13,23:00,0.613,0.878,0.570,1.090,0.726,0.369,0.638,0.602,���k��,11.3,�L
2021/03/13,23:10,0.615,0.879,0.570,1.094,0.726,0.368,0.638,0.601,���k��,12.1,�L
2021/03/13,23:20,0.615,0.880,0.571,1.095,0.728,0.368,0.638,0.602,���k��,12.2,��
2021/03/13,23:30,0.617,0.881,0.571,1.098,0.730,0.368,0.639,0.603,���k��,11.8,�L
2021/03/13,23:40,0.616,0.883,0.570,1.100,0.731,0.366,0.640,0.602,���k��,13.0,�L
2021/03/13,23:50,0.615,0.883,0.570,1.100,0.734,0.368,0.639,0.604,���k��,13.5,�L
